Hourly Weather Roundup
Issued by NWS Central Illinois

Home | Current Version | Previous Version | Text Only | Print | Product List | Glossary On
Versions: 1 2 3 4 5 6 7 8 9 10 11 12 13 14 15 16 17 18 19 20 21 22 23 24 25 26 27 28 29 30 31 32 33 34 35 36 37 38 39 40 41 42 43 44 45 46 47 48 49 50
000
NZUS43 KILX 190510
HWRILX

Area Weather Roundup
National Weather Service Lincoln IL
1100 PM CST SUN FEB 18 2018

NOTE:  "FAIR" indicates few or no clouds below 12,000 feet, with
       no sigificant weather and/or obstructions to visibility.


CITY           SKY/WX    TMP DP  RH WIND       PRES   REMARKS
Bloomington    MOCLDY    41  34  76 S23       29.87F WCI  31
Champaign      MOCLDY    43  34  70 S20       29.92F WCI  34
Danville       MOCLDY    43  32  64 S16       29.92F
Decatur        CLOUDY    45  34  65 S18G26    29.91S
Effingham      CLOUDY    47  36  63 SE12G17   29.98F
Flora          CLOUDY    48  37  65 S13       29.99S
Galesburg      CLOUDY    41  35  78 SE5       29.84S
Jacksonville   CLOUDY    46  36  67 S16G23    29.82F
Lacon          DRIZZLE   42  34  74 S13G22    29.84R WCI  35
Lawrenceville  CLOUDY    46  36  68 S9        30.01F
Litchfield     CLOUDY    46  36  66 S18       29.88F
$$


CITY           SKY/WX    TMP DP  RH WIND       PRES   REMARKS
Lincoln        CLOUDY    45  36  71 S14G21    29.87S
Macomb         LGT RAIN  43  35  74 S6        29.85R
Mattoon        MOCLDY    45  34  65 S16G23    29.94S
Mt Carmel AP   CLOUDY    46  35  67 S8        30.01F
Olney-Noble AP MOCLDY    46  33  61 S9        30.00S
Paris AP       MOCLDY    43  35  73 SE14      29.98F
Peoria         CLOUDY    42  34  73 S15G28    29.83F WCI  34
Pontiac        MOCLDY    41  36  82 S24G33    29.87F WCI  31
Rantoul        CLOUDY    42  36  78 S14       29.93F
Robinson       CLOUDY    45  34  66 SE8       30.01F
Springfield    CLOUDY    47  35  63 S20G28    29.85F
Taylorville    CLOUDY    47  36  65 S23G29    29.88F
$$

...REGIONAL REPORTS...


CITY           SKY/WX    TMP DP  RH WIND       PRES   REMARKS
Chicago O`Hare MOCLDY    39  30  70 S16       29.87F WCI  30
Kankakee       MOCLDY    38  31  75 SE9       29.91F WCI  31
Moline         CLOUDY    43  32  65 S12       29.79F
Mount Sterling CLOUDY    45  36  70 S13       29.80R
Mount Vernon   CLOUDY    48  37  65 SE3       29.98F
Pittsfield     CLOUDY    48  39  69 S22G30    29.81S
Quincy         CLOUDY    48  35  60 S10       29.81R
Rockford       CLOUDY    37  31  78 S14       29.87S WCI  28
$$


CITY           SKY/WX    TMP DP  RH WIND       PRES   REMARKS
Burlington     CLOUDY    44  31  60 S9        29.80F
Cedar Rapids   CLOUDY    41  30  65 S10       29.74S WCI  35
Des Moines     CLOUDY    45  33  63 S8        29.68F
Kirksville     CLOUDY    50  40  68 S14G22    29.77S
Ottumwa        CLOUDY    46  28  49 S13       29.73S
St Louis       CLOUDY    51  41  68 S17G23    29.88S
$$


CITY           SKY/WX    TMP DP  RH WIND       PRES   REMARKS
Terre Haute    MOCLDY    45  34  65 S13       29.99F
Evansville     CLOUDY    49  37  63 SE7       30.03F
Indianapolis   MOCLDY    43  33  68 SE13      30.03S
Lafayette      CLOUDY    43  33  68 S13G20    29.96F
Madison        FAIR      36  30  79 S10       29.83F WCI  28
Milwaukee      MOCLDY    36  30  79 S7        29.87F WCI  30
$$






USA.gov is the U.S. government's official web portal to all federal, state and local government web resources and services.